{"data":{"norad_id":61862,"intl_designator":"2024-202T","name":"STARLINK-32393","alt_names":[],"object_type":"PAYLOAD","status":"ACTIVE","operator":null,"country":"US","launch_date":"2024-11-07","launch_site_code":"AFETR","launch_vehicle":null,"mission":null,"orbit_class":"UNKNOWN","rcs_meters":null,"size_class":null,"mass_kg":null,"dimensions":null,"purposes":["comms"],"wikipedia_slug":null,"has_3d_model":false,"image_url":null,"decayed_at":null,"tle_current":{"epoch":"2026-09-21T21:26:05.224992Z","epoch_age_seconds":68206,"freshness":"FRESH","line1":"1 61862U 24202T   26264.89311603 -.00000774  00000+0 -18624-4 0  9998","line2":"2 61862  43.0002 210.0017 0000783 240.0319 120.0455 15.27586862105342","mean_motion":15.27586862,"eccentricity":7.83e-5,"inclination_deg":43.0002,"raan_deg":210.0017,"arg_perigee_deg":240.0319,"mean_anomaly_deg":120.0455,"bstar":-1.8624e-5,"rev_number":10534,"period_min":94.266325262491,"perigee_km":482.4913195575,"apogee_km":483.56577808245,"semimajor_km":6861.16554882,"source":"CELESTRAK","updated_at":"2026-09-22T09:00:49.443137Z"}}}